{"data":{"norad_id":36519,"intl_designator":"2010-017A","name":"COSMOS 2463","alt_names":[],"object_type":"PAYLOAD","status":"ACTIVE","operator":null,"country":"CIS","launch_date":"2010-04-27","launch_site_code":"PLMSC","launch_vehicle":null,"mission":null,"orbit_class":"UNKNOWN","rcs_meters":1.6976,"size_class":null,"mass_kg":null,"dimensions":null,"purposes":["nav"],"wikipedia_slug":null,"has_3d_model":false,"image_url":null,"decayed_at":null,"tle_current":{"epoch":"2026-09-19T03:28:03.083232Z","epoch_age_seconds":131646,"freshness":"FRESH","line1":"1 36519U 10017A   26262.14448013  .00000053  00000+0  42026-4 0  9991","line2":"2 36519  82.9644 180.6805 0034946 228.0560 199.5303 13.71670614820811","mean_motion":13.71670614,"eccentricity":0.0034946,"inclination_deg":82.9644,"raan_deg":180.6805,"arg_perigee_deg":228.056,"mean_anomaly_deg":199.5303,"bstar":4.2026e-5,"rev_number":82081,"period_min":104.98147188564,"perigee_km":967.81818758592,"apogee_km":1019.3405877626,"semimajor_km":7371.7163876743,"source":"CELESTRAK","updated_at":"2026-09-20T09:00:46.996086Z"}}}